Regional Weather Roundup
Issued by NWS

Home | Current Version | Previous Version | Text Only | Print | Product List | Glossary Off
Versions: 1 2 3 4 5 6 7 8 9 10 11 12 13 14 15 16 17 18 19 20 21 22 23 24 25 26 27 28 29 30 31 32 33 34 35 36 37 38 39 40 41 42 43 44 45 46 47 48 49 50

124
ASUS43 KFSD 241102
RWRSD

WEATHER ROUNDUP FOR SOUTH DAKOTA
NATIONAL WEATHER SERVICE SIOUX FALLS SD
500 AM CST FRI NOV 24 2017

NOTE: "FAIR" INDICATES FEW OR NO CLOUDS BELOW 12,000 FEET WITH NO
SIGNIFICANT WEATHER AND/OR OBSTRUCTIONS TO VISIBILITY.


SDZ001>005-009-010-012>017-241200-
NORTHWEST AND NORTH CENTRAL SOUTH DAKOTA

CITY           SKY/WX    TMP DP  RH WIND       PRES   REMARKS
FAITH            N/A     50  35  56 SW12      29.45F
MOBRIDGE       CLOUDY    50  35  56 MISG      29.39R
$$

SDZ012>016-024>037-041>051-057-063-072>074-241200-
SOUTHWEST AND SOUTH CENTRAL SOUTH DAKOTA

CITY           SKY/WX    TMP DP  RH WIND       PRES   REMARKS
RAPID CTY ARPT CLEAR     51  30  44 SW8       29.54F
PIERRE         CLOUDY    46  37  71 W10       29.44F
CUSTER         CLEAR     50  31  48 W17G29    29.64F
ELLSWORTH AFB  CLEAR     53  29  39 SW10      29.52F
PHILIP         CLEAR     46  37  71 NW6       29.50S
PINE RIDGE     CLEAR     44  36  73 CALM      29.62S
SPEARFISH      FAIR      61  32  33 SW18G31   29.55F
WINNER         FAIR      56  39  53 W6        29.48F
$$

SDZ004>011-016>023-039-040-241200-
NORTHEAST SOUTH DAKOTA

CITY           SKY/WX    TMP DP  RH WIND       PRES   REMARKS
ABERDEEN       CLOUDY    40  36  86 SW8       29.37F
WATERTOWN      CLEAR     34  33  96 CALM      29.40F
BROOKINGS      CLEAR     36  33  89 SE9       29.43F
SISSETON         N/A     53  38  56 SW24      29.30F
$$

SDZ017-020-022-023-036>040-048>070-241200-
SOUTHEAST SOUTH DAKOTA

CITY           SKY/WX    TMP DP  RH WIND       PRES   REMARKS
SIOUX FALLS    CLEAR     47  41  80 SW8       29.45F
HURON          CLEAR     36  34  92 SE6       29.41F
CHAMBERLAIN    CLEAR     44  38  79 CALM      29.47F
MITCHELL       CLEAR     49  38  65 W13       29.44F
YANKTON        CLEAR     46  39  76 CALM      29.47F
$$

ABBREVIATIONS USED IN REMARKS
   TC - TEMPERATURE IN CELSIUS
  WCI - WIND CHILL INDEX
   HX - HEAT INDEX
  VSB - VISIBILITY





USA.gov is the U.S. government's official web portal to all federal, state and local government web resources and services.